| time (UTC) | temp F | wind direction | speed MPH | gust MPH | rain 1hr in | rain 24hr in | rain mn in | humidity % | barometer mb |
| 20260904060504 | 66 | 210 | 1.0 | 2.0 | 0.00 | 0.00 | 0.00 | 79 | 1017.3 |
| 20260904060004 | 66 | 211 | 2.0 | 3.0 | 0.00 | 0.00 | 0.00 | 79 | 1017.3 |
| 20260904055504 | 65 | 210 | 1.0 | 3.0 | 0.00 | 0.00 | 0.00 | 79 | 1017.2 |
| 20260904054004 | 65 | 203 | 2.0 | 3.0 | 0.00 | 0.00 | 0.00 | 79 | 1017.3 |
| 20260904053504 | 65 | 200 | 3.0 | 3.0 | 0.00 | 0.00 | 0.00 | 79 | 1017.3 |
| 20260904053004 | 65 | 203 | 2.0 | 3.0 | 0.00 | 0.00 | 0.00 | 79 | 1017.3 |
| 20260904052504 | 65 | 203 | 2.0 | 3.0 | 0.00 | 0.00 | 0.00 | 80 | 1017.3 |
| 20260904052004 | 65 | 203 | 2.0 | 3.0 | 0.00 | 0.00 | 0.00 | 79 | 1017.3 |
| 20260904051506 | 65 | 198 | 3.0 | 3.0 | 0.00 | 0.00 | 0.00 | 79 | 1017.3 |
| 20260904051006 | 66 | 206 | 2.0 | 3.0 | 0.00 | 0.00 | 0.00 | 79 | 1017.3 |
| 20260904050504 | 66 | 203 | 2.0 | 3.0 | 0.00 | 0.00 | 0.00 | 79 | 1017.4 |
| 20260904050004 | 66 | 227 | 2.0 | 3.0 | 0.00 | 0.00 | 0.00 | 78 | 1017.3 |
| 20260904045504 | 66 | 217 | 2.0 | 3.0 | 0.00 | 0.00 | 0.00 | 79 | 1017.4 |
| 20260904045004 | 66 | 213 | 1.0 | 3.0 | 0.00 | 0.00 | 0.00 | 78 | 1017.4 |
| 20260904044004 | 66 | 211 | 1.0 | 3.0 | 0.00 | 0.00 | 0.00 | 79 | 1017.4 |
| 20260904043504 | 66 | 210 | 2.0 | 3.0 | 0.00 | 0.00 | 0.00 | 79 | 1017.4 |
| 20260904043003 | 65 | 208 | 2.0 | 3.0 | 0.00 | 0.00 | 0.00 | 79 | 1017.5 |
| 20260904042005 | 66 | 202 | 3.0 | 5.0 | 0.00 | 0.00 | 0.00 | 78 | 1017.6 |
| 20260904041503 | 66 | 201 | 2.0 | 3.0 | 0.00 | 0.00 | 0.00 | 78 | 1017.5 |
| 20260904041005 | 66 | 203 | 3.0 | 5.0 | 0.00 | 0.00 | 0.00 | 78 | 1017.6 |
| 20260904040504 | 66 | 200 | 3.0 | 5.0 | 0.00 | 0.00 | 0.00 | 78 | 1017.7 |
| 20260904040003 | 66 | 197 | 3.0 | 6.0 | 0.00 | 0.00 | 0.00 | 78 | 1017.8 |
| 20260904035504 | 66 | 210 | 5.0 | 6.0 | 0.00 | 0.00 | 0.00 | 78 | 1017.8 |
| 20260904035004 | 66 | 199 | 5.0 | 7.0 | 0.00 | 0.00 | 0.00 | 78 | 1017.9 |
| 20260904034508 | 65 | 203 | 3.0 | 6.0 | 0.00 | 0.00 | 0.00 | 79 | 1017.9 |
| 20260904034007 | 65 | 202 | 3.0 | 6.0 | 0.00 | 0.00 | 0.00 | 79 | 1017.9 |
| 20260904033508 | 65 | 205 | 4.0 | 6.0 | 0.00 | 0.00 | 0.00 | 80 | 1017.9 |
| 20260904032507 | 65 | 207 | 3.0 | 3.0 | 0.00 | 0.00 | 0.00 | 79 | 1018.0 |
| 20260904031508 | 65 | 203 | 2.0 | 3.0 | 0.00 | 0.00 | 0.00 | 79 | 1017.9 |
| 20260904031008 | 65 | 201 | 2.0 | 3.0 | 0.00 | 0.00 | 0.00 | 79 | 1017.9 |
| 20260904030508 | 65 | 197 | 2.0 | 3.0 | 0.00 | 0.00 | 0.00 | 79 | 1017.9 |
| 20260904030008 | 65 | 202 | 3.0 | 5.0 | 0.00 | 0.00 | 0.00 | 78 | 1017.9 |
| 20260904025507 | 65 | 208 | 4.0 | 6.0 | 0.00 | 0.00 | 0.00 | 78 | 1017.9 |
| 20260904025008 | 65 | 211 | 3.0 | 7.0 | 0.00 | 0.00 | 0.00 | 77 | 1017.9 |
| 20260904024008 | 66 | 203 | 3.0 | 6.0 | 0.00 | 0.00 | 0.00 | 77 | 1018.1 |
| 20260904023508 | 66 | 205 | 4.0 | 6.0 | 0.00 | 0.00 | 0.00 | 77 | 1018.0 |
| 20260904023007 | 66 | 214 | 3.0 | 5.0 | 0.00 | 0.00 | 0.00 | 77 | 1018.1 |
| 20260904022507 | 66 | 191 | 4.0 | 6.0 | 0.00 | 0.00 | 0.00 | 76 | 1018.1 |
| 20260904022007 | 66 | 196 | 3.0 | 6.0 | 0.00 | 0.00 | 0.00 | 76 | 1018.2 |
| 20260904021507 | 65 | 196 | 3.0 | 5.0 | 0.00 | 0.00 | 0.00 | 76 | 1018.2 |
| 20260904021009 | 66 | 199 | 2.0 | 3.0 | 0.00 | 0.00 | 0.00 | 76 | 1018.3 |
| 20260904020008 | 66 | 206 | 3.0 | 5.0 | 0.00 | 0.00 | 0.00 | 74 | 1018.4 |
| 20260904015507 | 67 | 206 | 2.0 | 8.0 | 0.00 | 0.00 | 0.00 | 74 | 1018.4 |
| 20260904015008 | 67 | 207 | 2.0 | 5.0 | 0.00 | 0.00 | 0.00 | 73 | 1018.4 |
| 20260904014507 | 68 | 198 | 2.0 | 3.0 | 0.00 | 0.00 | 0.00 | 72 | 1018.4 |
| 20260904013507 | 68 | 219 | 2.0 | 3.0 | 0.00 | 0.00 | 0.00 | 72 | 1018.5 |
| 20260904013007 | 68 | 199 | 2.0 | 3.0 | 0.00 | 0.00 | 0.00 | 71 | 1018.5 |
| 20260904012508 | 68 | 219 | 1.0 | 3.0 | 0.00 | 0.00 | 0.00 | 71 | 1018.5 |
| 20260904012008 | 68 | 249 | 2.0 | 3.0 | 0.00 | 0.00 | 0.00 | 71 | 1018.6 |
| 20260904011507 | 68 | 209 | 3.0 | 5.0 | 0.00 | 0.00 | 0.00 | 70 | 1018.7 |
| 20260904011008 | 69 | 225 | 3.0 | 7.0 | 0.00 | 0.00 | 0.00 | 70 | 1018.6 |
| 20260904010007 | 68 | 191 | 1.0 | 3.0 | 0.00 | 0.00 | 0.00 | 70 | 1018.7 |
| 20260904005507 | 68 | 217 | 3.0 | 6.0 | 0.00 | 0.00 | 0.00 | 70 | 1018.7 |
| 20260904005007 | 68 | 194 | 1.0 | 3.0 | 0.00 | 0.00 | 0.00 | 71 | 1018.8 |
| 20260904004508 | 68 | 210 | 2.0 | 3.0 | 0.00 | 0.00 | 0.00 | 70 | 1018.8 |
| 20260904004008 | 68 | 224 | 3.0 | 5.0 | 0.00 | 0.00 | 0.00 | 70 | 1018.7 |
| 20260904003507 | 68 | 196 | 3.0 | 5.0 | 0.00 | 0.00 | 0.00 | 70 | 1018.7 |
| 20260904003007 | 68 | 202 | 3.0 | 5.0 | 0.00 | 0.00 | 0.00 | 70 | 1018.8 |
| 20260904002507 | 68 | 201 | 2.0 | 3.0 | 0.00 | 0.00 | 0.00 | 70 | 1018.9 |
| 20260904002007 | 68 | 204 | 3.0 | 5.0 | 0.00 | 0.00 | 0.00 | 70 | 1018.8 |
| 20260904001507 | 68 | 207 | 3.0 | 6.0 | 0.00 | 0.00 | 0.00 | 69 | 1018.9 |
| 20260904001008 | 68 | 222 | 3.0 | 7.0 | 0.00 | 0.00 | 0.00 | 70 | 1019.0 |
| 20260904000507 | 68 | 199 | 4.0 | 6.0 | 0.00 | 0.00 | 0.00 | 70 | 1019.0 |
| 20260904000007 | 68 | 207 | 3.0 | 7.0 | 0.00 | 0.00 | 0.00 | 71 | 1019.2 |
| 20260903235507 | 68 | 216 | 3.0 | 5.0 | 0.00 | 0.00 | 0.00 | 71 | 1019.2 |
| 20260903235008 | 67 | 212 | 2.0 | 3.0 | 0.00 | 0.00 | 0.00 | 71 | 1019.3 |
| 20260903234507 | 68 | 210 | 3.0 | 3.0 | 0.00 | 0.00 | 0.00 | 71 | 1019.3 |
| 20260903234008 | 68 | 211 | 3.0 | 3.0 | 0.00 | 0.00 | 0.00 | 70 | 1019.4 |
| 20260903233507 | 69 | 204 | 3.0 | 5.0 | 0.00 | 0.00 | 0.00 | 69 | 1019.4 |
| 20260903233008 | 69 | 221 | 3.0 | 5.0 | 0.00 | 0.00 | 0.00 | 69 | 1019.6 |
| 20260903232508 | 69 | 206 | 2.0 | 5.0 | 0.00 | 0.00 | 0.00 | 68 | 1019.6 |
| 20260903232007 | 69 | 192 | 3.0 | 6.0 | 0.00 | 0.00 | 0.00 | 68 | 1019.6 |
| 20260903231507 | 69 | 205 | 2.0 | 7.0 | 0.00 | 0.00 | 0.00 | 68 | 1019.7 |
| 20260903231008 | 69 | 200 | 2.0 | 3.0 | 0.00 | 0.00 | 0.00 | 68 | 1019.6 |
| 20260903230507 | 69 | 214 | 1.0 | 3.0 | 0.00 | 0.00 | 0.00 | 68 | 1019.7 |
| 20260903230007 | 69 | 218 | 2.0 | 3.0 | 0.00 | 0.00 | 0.00 | 68 | 1019.8 |
| 20260903225508 | 69 | 201 | 2.0 | 3.0 | 0.00 | 0.00 | 0.00 | 67 | 1019.8 |
| 20260903224507 | 69 | 215 | 2.0 | 3.0 | 0.00 | 0.00 | 0.00 | 68 | 1019.9 |
| 20260903224007 | 69 | 209 | 1.0 | 3.0 | 0.00 | 0.00 | 0.00 | 68 | 1019.9 |
| 20260903223007 | 69 | 206 | 2.0 | 3.0 | 0.00 | 0.00 | 0.00 | 68 | 1019.9 |
| 20260903222007 | 69 | 200 | 3.0 | 3.0 | 0.00 | 0.00 | 0.00 | 68 | 1020.0 |
| 20260903221507 | 68 | 221 | 2.0 | 3.0 | 0.00 | 0.00 | 0.00 | 69 | 1020.1 |
| 20260903221008 | 68 | 225 | 3.0 | 5.0 | 0.00 | 0.00 | 0.00 | 68 | 1020.0 |
| 20260903220508 | 69 | 243 | 2.0 | 3.0 | 0.00 | 0.00 | 0.00 | 68 | 1019.9 |
| 20260903220007 | 68 | 228 | 2.0 | 5.0 | 0.00 | 0.00 | 0.00 | 68 | 1019.9 |
| 20260903215008 | 67 | 210 | 1.0 | 2.0 | 0.00 | 0.00 | 0.00 | 69 | 1019.8 |
| 20260903214507 | 68 | 210 | 1.0 | 2.0 | 0.00 | 0.00 | 0.00 | 68 | 1019.8 |
| 20260903214007 | 68 | 210 | 0.0 | 2.0 | 0.00 | 0.00 | 0.00 | 68 | 1019.8 |
| 20260903213507 | 68 | 210 | 1.0 | 2.0 | 0.00 | 0.00 | 0.00 | 68 | 1019.8 |
| 20260903212507 | 68 | 203 | 2.0 | 3.0 | 0.00 | 0.00 | 0.00 | 68 | 1019.8 |
| 20260903212008 | 68 | 202 | 1.0 | 2.0 | 0.00 | 0.00 | 0.00 | 67 | 1019.8 |
| 20260903211008 | 68 | 202 | 2.0 | 3.0 | 0.00 | 0.00 | 0.00 | 67 | 1019.9 |
| 20260903210007 | 67 | 211 | 1.0 | 3.0 | 0.00 | 0.00 | 0.00 | 68 | 1019.9 |
| 20260903205508 | 68 | 211 | 0.0 | 2.0 | 0.00 | 0.00 | 0.00 | 67 | 1020.0 |
| 20260903205007 | 68 | 211 | 2.0 | 3.0 | 0.00 | 0.00 | 0.00 | 67 | 1019.9 |
| 20260903203507 | 67 | 208 | 2.0 | 3.0 | 0.00 | 0.00 | 0.00 | 68 | 1020.1 |
| 20260903203007 | 67 | 217 | 2.0 | 2.0 | 0.00 | 0.00 | 0.00 | 68 | 1020.2 |
| 20260903202507 | 67 | 217 | 2.0 | 3.0 | 0.00 | 0.00 | 0.00 | 67 | 1020.2 |
| 20260903202007 | 67 | 219 | 1.0 | 3.0 | 0.00 | 0.00 | 0.00 | 67 | 1020.1 |
| 20260903201507 | 67 | 242 | 2.0 | 3.0 | 0.00 | 0.00 | 0.00 | 67 | 1020.1 |
| 20260903201008 | 67 | 204 | 1.0 | 3.0 | 0.00 | 0.00 | 0.00 | 67 | 1020.1 |
| 20260903200507 | 67 | 207 | 1.0 | 3.0 | 0.00 | 0.00 | 0.00 | 67 | 1020.0 |
| 20260903195507 | 67 | 217 | 1.0 | 1.0 | 0.00 | 0.00 | 0.00 | 67 | 1020.0 |
| 20260903194507 | 68 | 217 | 1.0 | 2.0 | 0.00 | 0.00 | 0.00 | 66 | 1019.9 |
| 20260903194007 | 69 | 216 | 0.0 | 2.0 | 0.00 | 0.00 | 0.00 | 66 | 1019.8 |
| 20260903193507 | 69 | 214 | 1.0 | 2.0 | 0.00 | 0.00 | 0.00 | 65 | 1019.7 |
| 20260903193007 | 69 | 208 | 0.0 | 2.0 | 0.00 | 0.00 | 0.00 | 65 | 1019.7 |
| 20260903192007 | 70 | 229 | 2.0 | 5.0 | 0.00 | 0.00 | 0.00 | 65 | 1019.9 |
| 20260903191507 | 70 | 248 | 1.0 | 3.0 | 0.00 | 0.00 | 0.00 | 64 | 1020.0 |
| 20260903191008 | 71 | 198 | 1.0 | 3.0 | 0.00 | 0.00 | 0.00 | 64 | 1020.0 |
| 20260903190507 | 71 | 278 | 0.0 | 5.0 | 0.00 | 0.00 | 0.00 | 63 | 1020.1 |
| 20260903190007 | 71 | 236 | 2.0 | 5.0 | 0.00 | 0.00 | 0.00 | 62 | 1020.3 |
| 20260903185508 | 72 | 229 | 0.0 | 3.0 | 0.00 | 0.00 | 0.00 | 62 | 1020.3 |
| 20260903184507 | 72 | 346 | 1.0 | 10.0 | 0.00 | 0.00 | 0.00 | 59 | 1020.1 |
| 20260903184007 | 72 | 260 | 2.0 | 8.0 | 0.00 | 0.00 | 0.00 | 60 | 1020.0 |
| 20260903183507 | 72 | 358 | 0.0 | 3.0 | 0.00 | 0.00 | 0.00 | 59 | 1019.8 |
| 20260903183007 | 72 | 235 | 2.0 | 6.0 | 0.00 | 0.00 | 0.00 | 58 | 1019.7 |
| 20260903182506 | 72 | 294 | 1.0 | 6.0 | 0.00 | 0.00 | 0.00 | 59 | 1019.6 |
| 20260903182006 | 72 | 218 | 1.0 | 2.0 | 0.00 | 0.00 | 0.00 | 61 | 1019.6 |
| 20260903181507 | 72 | 233 | 0.0 | 2.0 | 0.00 | 0.00 | 0.00 | 60 | 1019.4 |
| 20260903181008 | 72 | 229 | 0.0 | 2.0 | 0.00 | 0.00 | 0.00 | 60 | 1019.4 |
| 20260903180507 | 72 | 228 | 1.0 | 2.0 | 0.00 | 0.00 | 0.00 | 59 | 1019.2 |
| 20260903180007 | 72 | 246 | 1.0 | 2.0 | 0.00 | 0.00 | 0.00 | 60 | 1019.2 |
| 20260903175507 | 72 | 213 | 0.0 | 2.0 | 0.00 | 0.00 | 0.00 | 59 | 1019.2 |
| 20260903175008 | 73 | 195 | 2.0 | 9.0 | 0.00 | 0.00 | 0.00 | 58 | 1019.2 |
| 20260903174007 | 73 | 204 | 2.0 | 7.0 | 0.00 | 0.00 | 0.00 | 58 | 1019.2 |
| 20260903173507 | 73 | 217 | 1.0 | 3.0 | 0.00 | 0.00 | 0.00 | 59 | 1019.2 |
| 20260903173006 | 73 | 219 | 0.0 | 2.0 | 0.00 | 0.00 | 0.00 | 59 | 1019.2 |
| 20260903172507 | 73 | 219 | 0.0 | 2.0 | 0.00 | 0.00 | 0.00 | 57 | 1019.2 |
| 20260903172007 | 73 | 217 | 0.0 | 2.0 | 0.00 | 0.00 | 0.00 | 57 | 1019.1 |
| 20260903163503 | 74 | 210 | 2.0 | 5.0 | 0.00 | 0.00 | 0.00 | 56 | 1019.0 |
| 20260903163005 | 74 | 15 | 1.0 | 3.0 | 0.00 | 0.00 | 0.00 | 57 | 1019.0 |
| 20260903162504 | 74 | 240 | 1.0 | 3.0 | 0.00 | 0.00 | 0.00 | 56 | 1019.0 |
| 20260903162004 | 74 | 232 | 1.0 | 6.0 | 0.00 | 0.00 | 0.00 | 58 | 1019.0 |
| 20260903161504 | 74 | 33 | 2.0 | 6.0 | 0.00 | 0.00 | 0.00 | 58 | 1019.0 |
| 20260903161004 | 73 | 224 | 3.0 | 8.0 | 0.00 | 0.00 | 0.00 | 57 | 1018.9 |
| 20260903160504 | 73 | 250 | 2.0 | 6.0 | 0.00 | 0.00 | 0.00 | 58 | 1019.0 |
| 20260903160004 | 73 | 258 | 1.0 | 3.0 | 0.00 | 0.00 | 0.00 | 58 | 1019.1 |
| 20260903155504 | 73 | 212 | 0.0 | 3.0 | 0.00 | 0.00 | 0.00 | 58 | 1019.1 |
| 20260903155004 | 73 | 202 | 2.0 | 8.0 | 0.00 | 0.00 | 0.00 | 57 | 1019.2 |
| 20260903154504 | 73 | 212 | 1.0 | 5.0 | 0.00 | 0.00 | 0.00 | 57 | 1019.3 |
| 20260903154005 | 73 | 213 | 2.0 | 6.0 | 0.00 | 0.00 | 0.00 | 56 | 1019.3 |
| 20260903153504 | 73 | 205 | 1.0 | 3.0 | 0.00 | 0.00 | 0.00 | 57 | 1019.3 |
| 20260903153004 | 73 | 203 | 2.0 | 7.0 | 0.00 | 0.00 | 0.00 | 56 | 1019.2 |
| 20260903152504 | 73 | 203 | 5.0 | 9.0 | 0.00 | 0.00 | 0.00 | 57 | 1019.2 |
| 20260903152004 | 73 | 204 | 4.0 | 7.0 | 0.00 | 0.00 | 0.00 | 57 | 1019.3 |
| 20260903151504 | 73 | 226 | 3.0 | 7.0 | 0.00 | 0.00 | 0.00 | 57 | 1019.4 |
| 20260903151004 | 73 | 211 | 1.0 | 9.0 | 0.00 | 0.00 | 0.00 | 57 | 1019.5 |
| 20260903150505 | 73 | 219 | 4.0 | 9.0 | 0.00 | 0.00 | 0.00 | 56 | 1019.4 |
| 20260903150004 | 73 | 201 | 1.0 | 5.0 | 0.00 | 0.00 | 0.00 | 56 | 1019.5 |
| 20260903145504 | 73 | 216 | 2.0 | 6.0 | 0.00 | 0.00 | 0.00 | 55 | 1019.4 |
| 20260903145004 | 74 | 234 | 3.0 | 10.0 | 0.00 | 0.00 | 0.00 | 55 | 1019.4 |
| 20260903144504 | 74 | 227 | 5.0 | 12.0 | 0.00 | 0.00 | 0.00 | 54 | 1019.4 |
| 20260903144005 | 74 | 224 | 3.0 | 6.0 | 0.00 | 0.00 | 0.00 | 55 | 1019.3 |
| 20260903143504 | 74 | 201 | 2.0 | 9.0 | 0.00 | 0.00 | 0.00 | 57 | 1019.3 |
| 20260903143005 | 74 | 206 | 6.0 | 12.0 | 0.00 | 0.00 | 0.00 | 56 | 1019.5 |
| 20260903142504 | 74 | 217 | 3.0 | 6.0 | 0.00 | 0.00 | 0.00 | 55 | 1019.5 |
| 20260903142004 | 74 | 218 | 3.0 | 12.0 | 0.00 | 0.00 | 0.00 | 54 | 1019.5 |
| 20260903141504 | 74 | 232 | 5.0 | 8.0 | 0.00 | 0.00 | 0.00 | 55 | 1019.6 |
| 20260903141004 | 74 | 208 | 5.0 | 9.0 | 0.00 | 0.00 | 0.00 | 54 | 1019.6 |
| 20260903140504 | 74 | 223 | 4.0 | 12.0 | 0.00 | 0.00 | 0.00 | 54 | 1019.5 |
| 20260903135504 | 76 | 219 | 5.0 | 10.0 | 0.00 | 0.00 | 0.00 | 53 | 1019.4 |
| 20260903135004 | 77 | 227 | 3.0 | 10.0 | 0.00 | 0.00 | 0.00 | 51 | 1019.4 |
| 20260903134504 | 77 | 228 | 6.0 | 12.0 | 0.00 | 0.00 | 0.00 | 52 | 1019.4 |
| 20260903134005 | 77 | 203 | 2.0 | 5.0 | 0.00 | 0.00 | 0.00 | 52 | 1019.4 |
| 20260903133504 | 76 | 286 | 2.0 | 9.0 | 0.00 | 0.00 | 0.00 | 52 | 1019.5 |
| 20260903132504 | 76 | 45 | 1.0 | 3.0 | 0.00 | 0.00 | 0.00 | 54 | 1019.7 |
| 20260903132004 | 74 | 280 | 2.0 | 5.0 | 0.00 | 0.00 | 0.00 | 53 | 1019.7 |
| 20260903131504 | 74 | 258 | 3.0 | 10.0 | 0.00 | 0.00 | 0.00 | 54 | 1019.8 |
| 20260903131004 | 74 | 235 | 5.0 | 12.0 | 0.00 | 0.00 | 0.00 | 53 | 1019.6 |
| 20260903130004 | 76 | 257 | 3.0 | 12.0 | 0.00 | 0.00 | 0.00 | 53 | 1019.7 |
| 20260903125504 | 77 | 199 | 6.0 | 13.0 | 0.00 | 0.00 | 0.00 | 52 | 1019.7 |
| 20260903125004 | 76 | 204 | 6.0 | 12.0 | 0.00 | 0.00 | 0.00 | 51 | 1019.8 |
| 20260903124503 | 76 | 254 | 4.0 | 12.0 | 0.00 | 0.00 | 0.00 | 53 | 1019.7 |
| 20260903124004 | 75 | 275 | 4.0 | 9.0 | 0.00 | 0.00 | 0.00 | 56 | 1019.9 |
| 20260903123505 | 75 | 203 | 3.0 | 9.0 | 0.00 | 0.00 | 0.00 | 54 | 1019.8 |
| 20260903123004 | 74 | 201 | 1.0 | 6.0 | 0.00 | 0.00 | 0.00 | 57 | 1019.9 |
| 20260903122504 | 73 | 245 | 3.0 | 5.0 | 0.00 | 0.00 | 0.00 | 57 | 1019.9 |
| 20260903122004 | 72 | 186 | 5.0 | 12.0 | 0.00 | 0.00 | 0.00 | 57 | 1020.0 |
| 20260903121504 | 72 | 210 | 7.0 | 10.0 | 0.00 | 0.00 | 0.00 | 58 | 1019.9 |
| 20260903120504 | 72 | 245 | 3.0 | 10.0 | 0.00 | 0.00 | 0.00 | 57 | 1019.9 |
| 20260903120004 | 72 | 220 | 6.0 | 12.0 | 0.00 | 0.00 | 0.00 | 58 | 1019.9 |
| 20260903115504 | 72 | 215 | 7.0 | 14.0 | 0.00 | 0.00 | 0.00 | 56 | 1020.0 |
| 20260903115004 | 73 | 192 | 7.0 | 14.0 | 0.00 | 0.00 | 0.00 | 58 | 1019.9 |
| 20260903114504 | 71 | 218 | 4.0 | 8.0 | 0.00 | 0.00 | 0.00 | 58 | 1020.1 |
| 20260903114005 | 71 | 203 | 3.0 | 10.0 | 0.00 | 0.00 | 0.00 | 58 | 1020.2 |
| 20260903113505 | 71 | 210 | 5.0 | 12.0 | 0.00 | 0.00 | 0.00 | 58 | 1020.3 |
| 20260903113004 | 72 | 230 | 8.0 | 15.0 | 0.00 | 0.00 | 0.00 | 57 | 1020.2 |
| 20260903112504 | 72 | 210 | 6.0 | 10.0 | 0.00 | 0.00 | 0.00 | 57 | 1020.1 |
| 20260903111004 | 71 | 215 | 4.0 | 8.0 | 0.00 | 0.00 | 0.00 | 57 | 1020.5 |
| 20260903110004 | 72 | 203 | 5.0 | 10.0 | 0.00 | 0.00 | 0.00 | 58 | 1020.4 |
| 20260903105003 | 71 | 209 | 6.0 | 12.0 | 0.00 | 0.00 | 0.00 | 57 | 1020.5 |
| 20260903104504 | 71 | 226 | 6.0 | 12.0 | 0.00 | 0.00 | 0.00 | 57 | 1020.6 |
| 20260903104005 | 71 | 209 | 6.0 | 12.0 | 0.00 | 0.00 | 0.00 | 56 | 1020.7 |
| 20260903103504 | 71 | 212 | 4.0 | 9.0 | 0.00 | 0.00 | 0.00 | 58 | 1020.9 |
| 20260903103004 | 71 | 291 | 1.0 | 5.0 | 0.00 | 0.00 | 0.00 | 57 | 1021.0 |
| 20260903102504 | 71 | 254 | 3.0 | 10.0 | 0.00 | 0.00 | 0.00 | 57 | 1021.0 |
| 20260903102003 | 71 | 263 | 3.0 | 12.0 | 0.00 | 0.00 | 0.00 | 56 | 1021.2 |
| 20260903101504 | 71 | 340 | 3.0 | 12.0 | 0.00 | 0.00 | 0.00 | 57 | 1021.2 |
| 20260903101004 | 71 | 211 | 6.0 | 9.0 | 0.00 | 0.00 | 0.00 | 57 | 1021.2 |
| 20260903100004 | 70 | 201 | 3.0 | 10.0 | 0.00 | 0.00 | 0.00 | 59 | 1021.3 |
| 20260903095504 | 69 | 240 | 6.0 | 12.0 | 0.00 | 0.00 | 0.00 | 58 | 1021.3 |
| 20260903095004 | 69 | 206 | 5.0 | 12.0 | 0.00 | 0.00 | 0.00 | 58 | 1021.2 |
| 20260903094504 | 69 | 239 | 3.0 | 14.0 | 0.00 | 0.00 | 0.00 | 60 | 1021.2 |
| 20260903094005 | 70 | 201 | 5.0 | 12.0 | 0.00 | 0.00 | 0.00 | 58 | 1021.2 |
| 20260903093504 | 69 | 207 | 5.0 | 13.0 | 0.00 | 0.00 | 0.00 | 59 | 1021.1 |
| 20260903093004 | 68 | 225 | 6.0 | 12.0 | 0.00 | 0.00 | 0.00 | 61 | 1021.3 |
| 20260903092503 | 68 | 216 | 7.0 | 12.0 | 0.00 | 0.00 | 0.00 | 61 | 1021.5 |
| 20260903092004 | 68 | 213 | 5.0 | 13.0 | 0.00 | 0.00 | 0.00 | 60 | 1021.4 |
| 20260903091504 | 68 | 221 | 6.0 | 13.0 | 0.00 | 0.00 | 0.00 | 59 | 1021.4 |
| 20260903091004 | 69 | 233 | 5.0 | 12.0 | 0.00 | 0.00 | 0.00 | 60 | 1021.1 |
| 20260903090504 | 68 | 221 | 5.0 | 12.0 | 0.00 | 0.00 | 0.00 | 62 | 1021.3 |
| 20260903090004 | 67 | 181 | 3.0 | 7.0 | 0.00 | 0.00 | 0.00 | 62 | 1021.5 |
| 20260903085504 | 67 | 208 | 3.0 | 8.0 | 0.00 | 0.00 | 0.00 | 63 | 1021.4 |
| 20260903084504 | 67 | 222 | 4.0 | 9.0 | 0.00 | 0.00 | 0.00 | 63 | 1021.2 |
| 20260903084004 | 67 | 235 | 5.0 | 9.0 | 0.00 | 0.00 | 0.00 | 62 | 1021.3 |
| 20260903083504 | 67 | 233 | 5.0 | 9.0 | 0.00 | 0.00 | 0.00 | 63 | 1021.2 |
| 20260903083004 | 67 | 203 | 3.0 | 7.0 | 0.00 | 0.00 | 0.00 | 65 | 1021.2 |
| 20260903082504 | 66 | 220 | 3.0 | 10.0 | 0.00 | 0.00 | 0.00 | 64 | 1021.1 |
| 20260903082004 | 66 | 206 | 6.0 | 12.0 | 0.00 | 0.00 | 0.00 | 62 | 1021.1 |
| 20260903081503 | 66 | 225 | 6.0 | 12.0 | 0.00 | 0.00 | 0.00 | 63 | 1021.0 |
| 20260903081004 | 66 | 239 | 7.0 | 12.0 | 0.00 | 0.00 | 0.00 | 63 | 1020.9 |
| 20260903080503 | 65 | 216 | 4.0 | 12.0 | 0.00 | 0.00 | 0.00 | 65 | 1021.1 |
| 20260903080003 | 64 | 220 | 4.0 | 7.0 | 0.00 | 0.00 | 0.00 | 66 | 1021.1 |
| 20260903075004 | 64 | 205 | 2.0 | 6.0 | 0.00 | 0.00 | 0.00 | 66 | 1021.1 |
| 20260903074504 | 64 | 231 | 5.0 | 9.0 | 0.00 | 0.00 | 0.00 | 66 | 1021.2 |
| 20260903074005 | 64 | 225 | 4.0 | 7.0 | 0.00 | 0.00 | 0.00 | 65 | 1021.2 |
| 20260903073504 | 64 | 212 | 3.0 | 7.0 | 0.00 | 0.00 | 0.00 | 65 | 1021.1 |
| 20260903073004 | 64 | 207 | 3.0 | 7.0 | 0.00 | 0.00 | 0.00 | 66 | 1021.0 |
| 20260903072504 | 64 | 201 | 5.0 | 9.0 | 0.00 | 0.00 | 0.00 | 66 | 1021.2 |
| 20260903072004 | 64 | 229 | 6.0 | 8.0 | 0.00 | 0.00 | 0.00 | 66 | 1021.1 |
| 20260903071504 | 63 | 220 | 3.0 | 8.0 | 0.00 | 0.00 | 0.00 | 68 | 1021.1 |
| 20260903071005 | 63 | 210 | 3.0 | 6.0 | 0.00 | 0.00 | 0.00 | 68 | 1021.0 |
| 20260903070004 | 62 | 195 | 3.0 | 6.0 | 0.00 | 0.00 | 0.00 | 68 | 1021.2 |
| 20260903064504 | 62 | 215 | 3.0 | 6.0 | 0.00 | 0.00 | 0.00 | 69 | 1021.4 |
| 20260903064004 | 62 | 212 | 2.0 | 6.0 | 0.00 | 0.00 | 0.00 | 69 | 1021.5 |
| 20260903063504 | 61 | 213 | 3.0 | 8.0 | 0.00 | 0.00 | 0.00 | 69 | 1021.6 |
| 20260903063004 | 61 | 224 | 3.0 | 7.0 | 0.00 | 0.00 | 0.00 | 69 | 1021.4 |
| 20260903062504 | 61 | 213 | 3.0 | 5.0 | 0.00 | 0.00 | 0.00 | 69 | 1021.4 |
| 20260903062004 | 61 | 209 | 2.0 | 5.0 | 0.00 | 0.00 | 0.00 | 69 | 1021.1 |
| 20260903061004 | 61 | 222 | 2.0 | 7.0 | 0.00 | 0.00 | 0.00 | 68 | 1021.1 |